COSMOS 1275 DEB, 42129

Orbit data source: Space-Track

COSMOS 1275 DEB, 42129 is space debris in LEO originally from a launch on Thu, 04 Jun 1981 UTC launched from the Plesetsk Missile And Space Complex (PKMTR). Debris objects in space refer to the collection of defunct objects orbiting the Earth. Examples of debris include non-operational satellites, rocket bodies, and fragments generated from explosions, collisions, or faulty payload assembly.

Loading next visibility...
Identifier
42129, 1981-053QR
Orbit
LEO
Country
Flag of CISCIS
Related business
Manufacturer
Unknown
Mission
Spacecraft
Bus & Motor
Unknown
Mass
Unknown
Launch date (UTC)
1981-06-04 (45 years ago)
Launch vehicle
Unknown
Launch site
Plesetsk Missile And Space Complex (PKMTR)
Object type
Payload
Rocket body
Debris
Shape & HBR
Unknown shape, 0.1 m
Radar Cross Section
Small (<0.1 m²)

Expand to show TLE details & history
Last TLE update: 2 weeks ago

TLE from 2 weeks ago
0 COSMOS 1275 DEB
1 42129U 81053QR  26136.37154037  .00000452  00000-0  33913-3 0  9996
2 42129  82.8435   9.6482 0065270  17.9687 342.3763 13.91463449593297
Epoch: 2026-05-16T08:55Z
TLE epoch observation values (Epoch: 2026-05-16T08:55:01.087Z)
Latitude
-0.00011°
Longitude
1.8042°
Altitude
881.026 km
Speed
7.435 km/s
True Right ascension
00h 38m 35s
True Declination
0° 00' 00"
Sunlit
Object was in daylight at epoch
Visualization orbit readout
Latitude
Unknown
Longitude
Unknown
Altitude
Unknown
Speed
Unknown
Apparent Right ascension
Unknown
Apparent Declination
Unknown
Sunlit
N/A
Visualization observer readout
Local Sidereal Time
18:44:17
Azimuth
Unknown
Elevation
Unknown
Doppler factor
Unknown
Orbital elements
Apogee altitude
968.276 km
Perigee altitude
872.997 km
Semi-major axis
7,298.773 km
Eccentricity
0.00653
Inclination
82.8435°
RAAN
9.6482°
Arg. of periapsis
17.9687°
True anomaly
342.14808°
Mean anomaly
342.3763°
Eccentric anomaly
342.26237°
Mean motion
3.48071 °/min
Orbital period
103.43 mins
BSTAR
0.00033913
Loading maneuver chart data...
Computing Atmospheric mass density...
Loading historical data...
Loading historical data...
Loading historical data...
Loading historical data...
Loading historical data...
Loading historical data...
Loading historical data...

Documentation

Showing up to 5 results
|